CAPE
0 0 0 0 6 1 1 1 1 5 3 3 4 9 2 5 1 0 0 0 0 0 0 0 0 0 0 0 0 0 0 0 96 311 98 76 189 77 112 103 52 12 158 553 266
0 0 0 0 4 0 1 0 0 0 0 4 5 4 2 0 0 61 28 20 47 129 0 0 0 0 0 0 0 0 0 0 149 342 155 23 17 105 193 144 184 3 319 375 209
0 0 0 0 1 0 1 0 0 0 0 5 5 0 0 0 12 121 310 79 197 46 0 0 0 0 0 0 0 0 0 5 68 42 44 16 53 41 71 63 103 22 0 341 596
0 0 0 0 0 0 0 0 0 0 0 5 0 0 0 0 0 59 216 233 257 0 0 0 0 0 0 0 0 0 0 0 77 14 23 11 47 45 1 0 97 145 172 479 443
0 0 0 0 0 1 0 0 0 0 0 3 0 0 0 0 3 150 122 179 0 0 0 0 0 0 0 3 0 0 6 0 12 10 50 19 4 18 15 82 223 407 587 559 543
0 0 0 0 0 0 0 0 0 0 0 0 0 0 0 0 12 22 0 0 0 0 0 0 0 0 0 0 0 0 9 0 0 0 18 15 50 202 122 192 250 352 632 859 619
0 0 0 0 0 0 0 0 0 0 0 0 0 0 0 0 0 38 0 0 0 0 0 0 0 0 0 7 11 5 0 0 0 20 4 2 13 339 495 418 343 432 595 868 349
0 0 0 0 0 0 0 0 0 0 0 0 0 0 0 0 0 0 0 4 27 3 0 0 0 0 0 0 0 0 0 0 0 0 1 5 207 511 471 413 190 503 589 565 143
0 0 0 0 0 0 0 0 0 0 0 0 0 0 0 0 0 0 0 14 26 2 0 0 0 0 8 11 0 0 0 4 0 0 5 22 294 363 316 358 203 87 143 162 108
6 0 0 0 0 0 0 0 0 0 0 0 0 0 0 0 0 0 0 0 0 0 0 0 0 0 2 0 0 0 0 3 0 0 3 0 46 306 224 276 152 164 104 115 96
9 0 0 0 0 0 0 0 0 0 0 0 0 0 0 0 0 0 0 0 0 0 35 0 10 1 0 0 0 0 0 3 2 0 0 0 12 133 232 182 93 267 397 127 114
9 1 0 0 0 0 0 0 0 0 0 0 0 0 0 0 0 0 0 0 0 2 1 2 0 0 0 0 0 2 2 1 0 0 0 2 0 24 187 163 221 158 133 255 205
7 4 0 0 0 0 0 0 0 0 0 0 0 0 0 0 0 0 0 0 0 0 0 0 0 1 0 0 0 0 13 10 1 0 0 11 13 0 0 91 393 334 179 347 391
7 7 0 0 0 0 0 0 0 0 0 0 0 0 0 0 0 0 0 0 0 0 1 0 0 0 0 0 0 1 1 9 4 0 2 2 23 40 12 4 50 383 396 500 516
4 11 0 0 0 0 0 1 0 0 0 0 0 0 0 0 0 0 0 1 0 18 0 5 8 2 0 0 0 0 0 0 9 1 2 8 2 49 3 0 6 88 160 454 532
3 17 4 0 0 0 29 89 178 11 0 0 0 0 0 0 0 0 0 0 0 0 0 0 0 3 9 0 0 34 0 1 5 0 14 38 1 3 1 5 0 80 143 331 623
3 15 3 0 0 2 0 14 45 48 0 0 0 0 0 0 0 0 0 0 0 0 0 3 0 1 1 8 49 34 45 26 3 1 7 26 9 0 7 0 0 25 164 347 621
10 21 6 0 4 3 29 71 25 0 0 0 0 0 0 0 0 0 0 0 0 0 0 0 17 1 20 16 21 3 2 2 0 0 17 5 16 11 0 7 6 14 142 53 688
20 30 6 0 3 6 29 38 0 0 0 0 0 0 0 0 0 0 0 0 0 0 0 10 46 10 12 48 29 6 17 11 21 1 2 27 19 80 30 23 0 10 133 164 673
21 27 0 0 0 16 20 0 0 0 0 5 1 0 0 0 0 0 0 0 0 0 2 22 35 2 0 5 3 22 5 41 10 3 1 0 3 34 24 28 77 150 308 612 836
13 17 0 0 0 41 0 0 0 0 0 4 3 0 0 0 0 0 0 0 0 3 35 17 6 21 0 10 0 0 0 0 0 0 0 40 4 0 0 0 105 312 394 639 717
51 19 1 8 13 11 0 1 0 6 13 4 0 1 0 3 6 2 3 67 74 66 13 8 1 22 39 2 11 0 11 46 3 0 5 1 2 0 0 0 0 41 401 517 478
38 41 33 13 0 0 0 0 0 10 1 0 12 2 0 7 9 0 116 88 99 46 9 37 0 0 0 31 70 21 0 22 3 0 0 0 0 0 0 0 0 0 4 329 325
62 76 104 36 0 0 0 0 0 8 24 0 7 27 2 11 0 5 103 126 86 5 0 62 33 0 0 0 43 15 16 0 1 0 0 0 0 0 0 0 0 0 0 29 245
75 23 33 21 11 6 0 0 0 18 14 0 0 13 0 0 0 19 119 32 77 33 3 8 0 0 0 30 15 6 13 0 0 0 0 0 0 0 0 0 0 0 0 0 0
56 31 83 17 21 6 0 0 0 4 9 0 8 5 0 0 12 53 225 187 47 28 0 1 6 0 0 0 0 0 0 0 0 0 0 0 0 0 0 0 0 0 0 0 0
13 51 66 53 1 1 0 0 0 29 9 0 35 37 18 142 201 266 326 289 177 32 2 3 10 0 0 0 0 0 0 0 0 0 0 0 0 0 0 0 0 0 0 0 0
CIN
-0 -0 -0 -0 -1 -0 -0 -0 -0 -0 -0 -0 -1 -1 -0 -0 -0 -0 -0 -0 -0 -0 -0 -0 -0 -0 -0 -0 -0 -0 -0 -0 -28 -6 -27 -38 -36 -87 -113 -105 -99 -38 -68 -90 -50
-0 -0 -0 -0 -2 -0 -0 -0 -0 -0 -0 -0 -2 -0 -0 -0 -0 -151 -227 -661 -807 -660 -0 -0 -0 -0 -0 -0 -0 -0 -0 -0 -67 -27 -127 -80 -41 -27 -24 -76 -97 -40 -63 -28 -23
-0 -0 -0 -0 -0 -0 -0 -0 -0 -0 -0 -1 -1 -0 -0 -0 -58 -163 -595 -802 -672 -271 -0 -0 -0 -0 -0 -0 -0 -0 -0 -44 -118 -89 -109 -100 -176 -17 -42 -101 -52 -36 -0 -15 -15
-0 -0 -0 -0 -0 -0 -0 -0 -0 -0 -0 -1 -0 -0 -0 -0 -0 -169 -652 -664 -657 -0 -0 -0 -0 -0 -0 -0 -0 -0 -0 -0 -95 -75 -68 -60 -89 -141 -40 -0 -163 -50 -149 -31 -20
-0 -0 -0 -0 -0 -1 -0 -0 -0 -0 -0 -1 -0 -0 -0 -0 -154 -449 -743 -694 -0 -0 -0 -0 -0 -0 -0 -17 -0 -0 -3 -0 -63 -104 -59 -124 -25 -29 -94 -118 -47 -35 -27 -16 -36
-0 -0 -0 -0 -0 -0 -0 -0 -0 -0 -0 -0 -0 -0 -0 -0 -178 -324 -0 -0 -0 -0 -0 -0 -0 -0 -0 -0 -0 -0 -18 -0 -0 -0 -21 -20 -20 -61 -84 -74 -40 -29 -18 -25 -24
-0 -0 -0 -0 -0 -0 -0 -0 -0 -0 -0 -0 -0 -0 -0 -0 -5 -144 -10 -0 -0 -0 -0 -0 -0 -0 -0 -5 -10 -9 -0 -0 -8 -31 -7 -13 -18 -21 -41 -32 -28 -21 -19 -12 -18
-0 -0 -0 -0 -0 -0 -0 -0 -0 -0 -0 -0 -0 -0 -0 -0 -0 -0 -0 -37 -60 -13 -0 -0 -0 -0 -0 -8 -0 -0 -0 -0 -0 -0 -4 -6 -15 -13 -18 -23 -13 -5 -3 -5 -12
-0 -0 -0 -0 -0 -0 -0 -0 -0 -0 -0 -0 -0 -0 -0 -0 -0 -0 -0 -79 -61 -55 -0 -0 -0 -0 -33 -14 -0 -0 -0 -10 -0 -0 -4 -22 -17 -21 -17 -23 -31 -17 -8 -8 -27
-0 -0 -0 -0 -0 -0 -0 -0 -0 -0 -0 -0 -0 -0 -0 -0 -0 -0 -0 -0 -10 -0 -0 -0 -0 -0 -41 -0 -0 -0 -1 -5 -0 -0 -10 -0 -20 -32 -23 -17 -28 -8 -14 -29 -42
-0 -0 -0 -0 -0 -0 -0 -0 -0 -0 -0 -0 -0 -0 -0 -0 -0 -0 -0 -0 -0 -20 -23 -0 -14 -25 -0 -0 -0 -0 -0 -39 -42 -0 -0 -0 -30 -37 -30 -20 -18 -12 -195 -61 -58
-0 -0 -0 -0 -0 -0 -0 -0 -0 -0 -0 -0 -0 -0 -0 -0 -0 -0 -0 -0 -0 -7 -27 -8 -0 -0 -0 -0 -0 -4 -2 -2 -5 -0 -0 -16 -1 -46 -39 -13 -20 -73 -272 -154 -30
-3 -0 -0 -0 -0 -0 -0 -0 -0 -0 -0 -0 -0 -0 -0 -0 -0 -0 -0 -0 -0 -2 -0 -0 -0 -20 -0 -0 -0 -0 -45 -16 -8 -0 -5 -26 -22 -0 -25 -32 -13 -23 -18 -49 -33
-7 -0 -0 -0 -0 -0 -0 -0 -0 -0 -0 -0 -0 -0 -0 -0 -0 -0 -0 -0 -0 -0 -24 -0 -0 -0 -0 -0 -0 -38 -15 -64 -5 -10 -26 -23 -35 -99 -39 -14 -7 -36 -40 -29 -35
-0 -0 -0 -0 -0 -0 -0 -1 -0 -0 -0 -0 -0 -0 -0 -0 -0 -0 -0 -1 -0 -5 -0 -9 -62 -73 -0 -0 -0 -0 -1 -0 -44 -12 -28 -8 -24 -53 -53 -3 -20 -10 -13 -15 -63
-0 -0 -0 -0 -0 -0 -3 -5 -11 -4 -0 -0 -0 -0 -0 -0 -0 -0 -0 -0 -0 -0 -0 -5 -0 -89 -83 -19 -0 -13 -0 -12 -13 -0 -19 -22 -6 -74 -55 -40 -7 -83 -27 -20 -52
-0 -0 -0 -0 -0 -1 -0 -13 -5 -0 -0 -0 -0 -0 -0 -0 -0 -0 -0 -0 -0 -0 -0 -62 -0 -4 -38 -6 -24 -43 -32 -15 -2 -9 -20 -101 -67 -8 -7 -1 -1 -161 -60 -64 -46
-0 -0 -0 -0 -0 -1 -0 -0 -0 -0 -0 -0 -0 -0 -0 -0 -0 -0 -0 -0 -0 -0 -0 -28 -20 -7 -7 -14 -13 -6 -17 -4 -0 -0 -143 -93 -22 -16 -7 -70 -42 -143 -49 -89 -60
-0 -0 -0 -0 -0 -0 -0 -0 -0 -0 -0 -0 -0 -0 -0 -0 -0 -0 -0 -0 -0 -0 -0 -76 -41 -12 -10 -28 -10 -10 -23 -8 -20 -115 -8 -25 -23 -19 -18 -18 -5 -55 -38 -115 -64
-0 -0 -0 -0 -0 -0 -0 -0 -0 -0 -0 -4 -2 -0 -0 -0 -0 -1 -0 -0 -0 -0 -65 -257 -108 -54 -1 -91 -18 -21 -37 -10 -12 -39 -35 -0 -12 -12 -19 -38 -36 -38 -55 -68 -37
-0 -0 -0 -0 -0 -0 -0 -0 -0 -0 -0 -35 -9 -0 -0 -2 -0 -0 -0 -1 -0 -39 -94 -37 -113 -197 -0 -56 -0 -0 -0 -0 -0 -0 -0 -27 -4 -0 -0 -11 -60 -24 -29 -42 -42
-0 -0 -1 -0 -0 -0 -0 -1 -0 -74 -102 -65 -0 -16 -0 -39 -27 -4 -31 -100 -49 -9 -4 -28 -9 -57 -116 -32 -19 -0 -25 -12 -1 -0 -32 -1 -53 -0 -0 -0 -0 -51 -32 -49 -69
-0 -1 -3 -0 -0 -0 -0 -0 -0 -136 -42 -0 -29 -7 -0 -37 -8 -0 -86 -116 -73 -26 -20 -48 -0 -0 -0 -16 -13 -6 -0 -1 -2 -0 -0 -0 -0 -0 -0 -0 -0 -0 -20 -29 -51
-6 -4 -0 -1 -0 -0 -0 -0 -0 -146 -105 -0 -33 -46 -5 -6 -0 -7 -39 -130 -139 -23 -0 -52 -34 -0 -0 -0 -11 -6 -6 -0 -1 -0 -0 -0 -0 -0 -0 -0 -0 -0 -0 -70 -24
-4 -8 -9 -0 -0 -9 -0 -0 -0 -93 -67 -0 -0 -31 -0 -0 -0 -6 -49 -168 -106 -85 -91 -90 -10 -2 -0 -61 -23 -14 -7 -1 -0 -0 -0 -0 -0 -0 -0 -0 -0 -0 -0 -0 -0
-0 -3 -8 -3 -1 -10 -0 -0 -0 -45 -49 -0 -20 -23 -0 -0 -10 -7 -26 -49 -88 -127 -0 -34 -46 -0 -0 -0 -0 -0 -0 -0 -0 -0 -0 -0 -0 -0 -0 -0 -0 -0 -0 -0 -0
-0 -11 -10 -46 -0 -7 -0 -0 -0 -48 -28 -0 -20 -20 -23 -45 -34 -76 -45 -62 -44 -25 -57 -40 -69 -0 -0 -0 -0 -0 -0 -0 -0 -0 -0 -0 -0 -0 -0 -0 -0 -0 -0 -0 -0
Wind_Speed
nan nan nan nan nan nan nan nan nan nan nan nan nan nan nan nan nan nan nan nan nan nan nan nan nan nan nan nan nan nan nan nan nan 20 nan nan 21 nan 36 43 nan nan 23 35 34
nan nan nan nan nan nan nan nan nan nan nan nan nan nan nan nan nan nan nan nan nan 19 nan nan nan nan nan nan nan nan nan nan 7 13 20 nan nan 31 30 38 28 nan 22 35 31
nan nan nan nan nan nan nan nan nan nan nan nan nan nan nan nan nan 22 18 nan 25 nan nan nan nan nan nan nan nan nan nan nan nan nan nan nan nan nan nan nan 26 nan nan 9 13
nan nan nan nan nan nan nan nan nan nan nan nan nan nan nan nan nan nan 18 28 22 nan nan nan nan nan nan nan nan nan nan nan nan nan nan nan nan nan nan nan nan 31 22 4 4
nan nan nan nan nan nan nan nan nan nan nan nan nan nan nan nan nan 25 28 27 nan nan nan nan nan nan nan nan nan nan nan nan nan nan nan nan nan nan nan nan 21 18 12 11 8
nan nan nan nan nan nan nan nan nan nan nan nan nan nan nan nan nan nan nan nan nan nan nan nan nan nan nan nan nan nan nan nan nan nan nan nan nan 15 1 6 3 8 5 8 12
nan nan nan nan nan nan nan nan nan nan nan nan nan nan nan nan nan nan nan nan nan nan nan nan nan nan nan nan nan nan nan nan nan nan nan nan nan 3 5 5 7 14 19 13 13
nan nan nan nan nan nan nan nan nan nan nan nan nan nan nan nan nan nan nan nan nan nan nan nan nan nan nan nan nan nan nan nan nan nan nan nan 5 12 12 13 12 14 11 14 8
nan nan nan nan nan nan nan nan nan nan nan nan nan nan nan nan nan nan nan nan nan nan nan nan nan nan nan nan nan nan nan nan nan nan nan nan 11 20 20 14 12 nan 10 11 8
nan nan nan nan nan nan nan nan nan nan nan nan nan nan nan nan nan nan nan nan nan nan nan nan nan nan nan nan nan nan nan nan nan nan nan nan nan 21 21 20 7 11 9 7 nan
nan nan nan nan nan nan nan nan nan nan nan nan nan nan nan nan nan nan nan nan nan nan nan nan nan nan nan nan nan nan nan nan nan nan nan nan nan 21 20 14 nan 17 18 16 9
nan nan nan nan nan nan nan nan nan nan nan nan nan nan nan nan nan nan nan nan nan nan nan nan nan nan nan nan nan nan nan nan nan nan nan nan nan nan 14 14 22 18 20 23 8
nan nan nan nan nan nan nan nan nan nan nan nan nan nan nan nan nan nan nan nan nan nan nan nan nan nan nan nan nan nan nan nan nan nan nan nan nan nan nan nan 21 28 27 19 20
nan nan nan nan nan nan nan nan nan nan nan nan nan nan nan nan nan nan nan nan nan nan nan nan nan nan nan nan nan nan nan nan nan nan nan nan nan nan nan nan nan 31 30 27 20
nan nan nan nan nan nan nan nan nan nan nan nan nan nan nan nan nan nan nan nan nan nan nan nan nan nan nan nan nan nan nan nan nan nan nan nan nan nan nan nan nan nan 16 23 31
nan nan nan nan nan nan nan nan 35 nan nan nan nan nan nan nan nan nan nan nan nan nan nan nan nan nan nan nan nan nan nan nan nan nan nan nan nan nan nan nan nan nan 15 22 31
nan nan nan nan nan nan nan nan nan nan nan nan nan nan nan nan nan nan nan nan nan nan nan nan nan nan nan nan nan nan nan nan nan nan nan nan nan nan nan nan nan nan 22 18 32
nan nan nan nan nan nan nan nan nan nan nan nan nan nan nan nan nan nan nan nan nan nan nan nan nan nan nan nan nan nan nan nan nan nan nan nan nan nan nan nan nan nan 15 nan 24
nan nan nan nan nan nan nan nan nan nan nan nan nan nan nan nan nan nan nan nan nan nan nan nan nan nan nan nan nan nan nan nan nan nan nan nan nan nan nan nan nan nan 17 15 18
nan nan nan nan nan nan nan nan nan nan nan nan nan nan nan nan nan nan nan nan nan nan nan nan nan nan nan nan nan nan nan nan nan nan nan nan nan nan nan nan nan 21 12 15 18
nan nan nan nan nan nan nan nan nan nan nan nan nan nan nan nan nan nan nan nan nan nan nan nan nan nan nan nan nan nan nan nan nan nan nan nan nan nan nan nan 27 25 25 25 24
nan nan nan nan nan nan nan nan nan nan nan nan nan nan nan nan nan nan nan nan nan nan nan nan nan nan nan nan nan nan nan nan nan nan nan nan nan nan nan nan nan nan 28 28 29
nan nan nan nan nan nan nan nan nan nan nan nan nan nan nan nan nan nan 25 nan nan nan nan nan nan nan nan nan nan nan nan nan nan nan nan nan nan nan nan nan nan nan nan 28 34
nan nan 58 nan nan nan nan nan nan nan nan nan nan nan nan nan nan nan 27 33 nan nan nan nan nan nan nan nan nan nan nan nan nan nan nan nan nan nan nan nan nan nan nan nan 37
nan nan nan nan nan nan nan nan nan nan nan nan nan nan nan nan nan nan 34 nan nan nan nan nan nan nan nan nan nan nan nan nan nan nan nan nan nan nan nan nan nan nan nan nan nan
nan nan nan nan nan nan nan nan nan nan nan nan nan nan nan nan nan nan 29 24 nan nan nan nan nan nan nan nan nan nan nan nan nan nan nan nan nan nan nan nan nan nan nan nan nan
nan nan nan nan nan nan nan nan nan nan nan nan nan nan nan 30 34 34 34 34 29 nan nan nan nan nan nan nan nan nan nan nan nan nan nan nan nan nan nan nan nan nan nan nan nan
Wind_Direction
nan nan nan nan nan nan nan nan nan nan nan nan nan nan nan nan nan nan nan nan nan nan nan nan nan nan nan nan nan nan nan nan nan 198 nan nan 265 nan 264 276 nan nan 272 291 283
nan nan nan nan nan nan nan nan nan nan nan nan nan nan nan nan nan nan nan nan nan 327 nan nan nan nan nan nan nan nan nan nan 196 297 259 nan nan 251 263 272 258 nan 271 283 271
nan nan nan nan nan nan nan nan nan nan nan nan nan nan nan nan nan 339 339 nan 342 nan nan nan nan nan nan nan nan nan nan nan nan nan nan nan nan nan nan nan 314 nan nan 249 289
nan nan nan nan nan nan nan nan nan nan nan nan nan nan nan nan nan nan 323 329 327 nan nan nan nan nan nan nan nan nan nan nan nan nan nan nan nan nan nan nan nan 307 331 220 252
nan nan nan nan nan nan nan nan nan nan nan nan nan nan nan nan nan 326 322 323 nan nan nan nan nan nan nan nan nan nan nan nan nan nan nan nan nan nan nan nan 313 294 325 9 290
nan nan nan nan nan nan nan nan nan nan nan nan nan nan nan nan nan nan nan nan nan nan nan nan nan nan nan nan nan nan nan nan nan nan nan nan nan 287 253 24 314 297 16 351 322
nan nan nan nan nan nan nan nan nan nan nan nan nan nan nan nan nan nan nan nan nan nan nan nan nan nan nan nan nan nan nan nan nan nan nan nan nan 220 22 18 27 31 35 344 338
nan nan nan nan nan nan nan nan nan nan nan nan nan nan nan nan nan nan nan nan nan nan nan nan nan nan nan nan nan nan nan nan nan nan nan nan 348 0 331 348 340 345 343 329 314
nan nan nan nan nan nan nan nan nan nan nan nan nan nan nan nan nan nan nan nan nan nan nan nan nan nan nan nan nan nan nan nan nan nan nan nan 334 333 331 327 332 nan 326 307 290
nan nan nan nan nan nan nan nan nan nan nan nan nan nan nan nan nan nan nan nan nan nan nan nan nan nan nan nan nan nan nan nan nan nan nan nan nan 324 325 325 260 272 186 335 nan
nan nan nan nan nan nan nan nan nan nan nan nan nan nan nan nan nan nan nan nan nan nan nan nan nan nan nan nan nan nan nan nan nan nan nan nan nan 319 313 318 nan 284 209 125 4
nan nan nan nan nan nan nan nan nan nan nan nan nan nan nan nan nan nan nan nan nan nan nan nan nan nan nan nan nan nan nan nan nan nan nan nan nan nan 312 336 341 321 335 43 344
nan nan nan nan nan nan nan nan nan nan nan nan nan nan nan nan nan nan nan nan nan nan nan nan nan nan nan nan nan nan nan nan nan nan nan nan nan nan nan nan 340 345 358 22 333
nan nan nan nan nan nan nan nan nan nan nan nan nan nan nan nan nan nan nan nan nan nan nan nan nan nan nan nan nan nan nan nan nan nan nan nan nan nan nan nan nan 328 341 333 325
nan nan nan nan nan nan nan nan nan nan nan nan nan nan nan nan nan nan nan nan nan nan nan nan nan nan nan nan nan nan nan nan nan nan nan nan nan nan nan nan nan nan 292 309 323
nan nan nan nan nan nan nan nan 257 nan nan nan nan nan nan nan nan nan nan nan nan nan nan nan nan nan nan nan nan nan nan nan nan nan nan nan nan nan nan nan nan nan 282 320 324
nan nan nan nan nan nan nan nan nan nan nan nan nan nan nan nan nan nan nan nan nan nan nan nan nan nan nan nan nan nan nan nan nan nan nan nan nan nan nan nan nan nan 333 304 313
nan nan nan nan nan nan nan nan nan nan nan nan nan nan nan nan nan nan nan nan nan nan nan nan nan nan nan nan nan nan nan nan nan nan nan nan nan nan nan nan nan nan 335 nan 307
nan nan nan nan nan nan nan nan nan nan nan nan nan nan nan nan nan nan nan nan nan nan nan nan nan nan nan nan nan nan nan nan nan nan nan nan nan nan nan nan nan nan 326 330 315
nan nan nan nan nan nan nan nan nan nan nan nan nan nan nan nan nan nan nan nan nan nan nan nan nan nan nan nan nan nan nan nan nan nan nan nan nan nan nan nan nan 321 347 333 319
nan nan nan nan nan nan nan nan nan nan nan nan nan nan nan nan nan nan nan nan nan nan nan nan nan nan nan nan nan nan nan nan nan nan nan nan nan nan nan nan 306 325 333 333 321
nan nan nan nan nan nan nan nan nan nan nan nan nan nan nan nan nan nan nan nan nan nan nan nan nan nan nan nan nan nan nan nan nan nan nan nan nan nan nan nan nan nan 314 317 317
nan nan nan nan nan nan nan nan nan nan nan nan nan nan nan nan nan nan 225 nan nan nan nan nan nan nan nan nan nan nan nan nan nan nan nan nan nan nan nan nan nan nan nan 305 313
nan nan 223 nan nan nan nan nan nan nan nan nan nan nan nan nan nan nan 230 209 nan nan nan nan nan nan nan nan nan nan nan nan nan nan nan nan nan nan nan nan nan nan nan nan 312
nan nan nan nan nan nan nan nan nan nan nan nan nan nan nan nan nan nan 229 nan nan nan nan nan nan nan nan nan nan nan nan nan nan nan nan nan nan nan nan nan nan nan nan nan nan
nan nan nan nan nan nan nan nan nan nan nan nan nan nan nan nan nan nan 240 240 nan nan nan nan nan nan nan nan nan nan nan nan nan nan nan nan nan nan nan nan nan nan nan nan nan
nan nan nan nan nan nan nan nan nan nan nan nan nan nan nan 216 222 225 231 244 251 nan nan nan nan nan nan nan nan nan nan nan nan nan nan nan nan nan nan nan nan nan nan nan nan